Location: Davayat
(45.9471°N, 3.1105°E)
Time: 18:03:00
(UTC+00:00)

USA 81 - Pass Details

Date: 01 December 2020
Orbit: 783 x 791 km, 85.0° (Epoch: 30 November)

Event Time Altitude Azimuth Distance (km) Brightness Sun altitude
Rises 17:24:08 0° 353° (N) 3,290 7.2 -13.5°
Reaches altitude 10° 17:26:30 10° 352° (N) 2,358 6.4 -13.9°
Maximum altitude 17:31:47 80° 267° (W) 806 4.2 -14.7°
Drops below altitude 10° 17:37:03 10° 181° (S) 2,345 6.7 -15.6°
Sets 17:39:24 0° 180° (S) 3,271 7.5 -16.0°
